Location: Newark
(25.4800°N, 85.7200°E)
Time: 16:40:22
(UTC+00:00)

Explorer 11/Cluster Stage 4 - Pass Details

Date: 24 August 2019
Orbit: 467 x 1259 km, 28.8° (Epoch: 15 October)

Event Time Altitude Azimuth Distance (km) Brightness Sun altitude
Rises 09:43:43 0° 283° (WNW) 4,104 11.0 39.8°
Reaches altitude 10° 09:46:51 10° 279° (W) 3,062 10.7 39.1°
Maximum altitude 09:54:09 51° 206° (SSW) 1,270 8.5 37.5°
Drops below altitude 10° 10:00:10 10° 132° (SE) 2,535 8.9 36.1°
Sets 10:02:33 0° 127° (SE) 3,351 9.4 35.6°
